Regional Weather Roundup
Issued by NWS

Home | Current Version | Previous Version | Text Only | Print | Product List | Glossary Off
Versions: 1 2 3 4 5 6 7 8 9 10 11 12 13 14 15 16 17 18 19 20 21 22 23 24 25 26 27 28 29 30 31 32 33 34 35 36 37 38 39 40 41 42 43 44 45 46 47 48 49 50

000
ASUS45 KSLC 051310
RWRUT

UTAH REGIONAL WEATHER ROUNDUP
NATIONAL WEATHER SERVICE SALT LAKE CITY UT
600 AM MST THU MAR 05 2015

UTZ001>011-023>025-051400-

NORTHERN UTAH

CITY           SKY/WX    TMP DP  RH WIND       PRES   REMARKS
BRIGHAM CITY   CLEAR     25  17  72 CALM      30.40R
HILL AFB       CLEAR     22  11  63 E16       30.37R WCI   8
LOGAN          CLEAR     20  14  77 CALM      30.38R
OGDEN          CLEAR     22  14  71 S9        30.37R WCI  12
PROVO AIRPORT  CLEAR     25  18  74 E5        30.40S WCI  19
SALT LAKE CITY PTCLDY    29  21  72 S9        30.38R WCI  20
VERNAL         CLEAR     16   7  67 W6        30.35R WCI   7
WENDOVER       PTCLDY    23  16  74 CALM      30.36S
HEBER CITY     CLEAR     14  10  85 CALM      30.39S
WEST JORDAN    CLEAR     27  19  74 SW7       30.38R WCI  19

$$

UTZ012>022-026-027-051400-

SOUTHERN/CENTRAL UTAH

CITY           SKY/WX    TMP DP  RH WIND       PRES   REMARKS
BLANDING       PTCLDY    19  12  75 N3        30.41R
BRYCE CANYON   MOCLDY    -9 -13  83 W7        30.34R WCI -24
CEDAR CITY     MOCLDY     7   3  84 CALM      30.35R
DELTA          CLEAR     21  18  89 CALM      30.39S
HANKSVILLE     CLEAR     21  19  93 CALM      30.39R
MILFORD        CLEAR     19  13  77 SW3       30.38R
MOAB/CYNLANDS  CLEAR     24  15  68 S3        30.36R
PRICE          CLEAR     17   9  70 CALM      30.33R
ST GEORGE      SUNNY     34  25  69 CALM      30.40R
KANAB          PTCLDY    23  12  63 NW16      30.40R WCI  10

$$

REGIONAL REPORTS     COLORADO/ARIZONA

CITY           SKY/WX    TMP DP  RH WIND       PRES   REMARKS
CRAIG, CO      MOCLDY     4  -1  80 SW3       30.35R
GRAND JUNCTION CLEAR     20  10  65 E13       30.38R WCI   7
RIFLE          PTCLDY    15   8  73 SE3       30.42R
MONTROSE       CLEAR     18   8  65 SE7       30.40R WCI   9
CORTEZ         CLEAR     16   9  74 N6        30.35R WCI   7
PAGE, AZ       CLEAR     32  21  64 SE6       30.36R WCI  26
GRAND CANYON   PTCLDY     5   1  83 NE7       30.32R WCI  -7
KINGMAN        CLEAR     31  24  75 SE6       30.30R WCI  25
FLAGSTAFF      PTCLDY    11   7  84 CALM      30.31R

$$

REGIONAL REPORTS    NEVADA/IDAHO/WYOMING

CITY           SKY/WX    TMP DP  RH WIND       PRES   REMARKS
LAS VEGAS, NV  CLEAR     42  28  57 S8        30.30R
ELY            PTCLDY    12   8  84 S12       30.36R WCI  -2
ELKO           PTCLDY    16  10  77 E3        30.36R
POCATELLO, ID  CLEAR     22  14  71 CALM      30.35R
EVANSTON, WY   CLEAR     12   5  73 SW13      30.29S WCI  -3
ROCK SPRINGS   PTCLDY    15   6  67 SW23      30.23R WCI  -3

$$



USA.gov is the U.S. government's official web portal to all federal, state and local government web resources and services.